{"data":{"norad_id":54206,"epoch":"2026-05-24T22:47:27.919680Z","epoch_age_seconds":69545,"freshness":"FRESH","line1":"1 54206U 22141BB  26144.94962870 -.00000116  00000+0  10824-4 0  9996","line2":"2 54206  53.2126 336.6120 0001387  88.1183 271.9968 15.08835246198009","mean_motion":15.08835246,"eccentricity":0.0001387,"inclination_deg":53.2126,"raan_deg":336.612,"arg_perigee_deg":88.1183,"mean_anomaly_deg":271.9968,"bstar":1.0824e-5,"rev_number":19800,"period_min":95.437855380003,"perigee_km":538.79840805297,"apogee_km":540.7174321038,"semimajor_km":6917.8949200784,"source":"CELESTRAK","updated_at":"2026-05-25T13:38:17.686675Z"}}